[[{"header":{"parameterUnit":"m.s-1","parameterCategory":1,"la1":30.2991,"la2":30.254,"lo1":-89.0895,"lo2":-89.0444,"dy":0.0017,"dx":0.0017,"nx":28,"ny":28,"refTime":"2025-04-29T03:00:00:Z","depth":0,"parameterNumber":2,"parameterNumberName":"U-component_of_WINDS"},"data":[0,0,0,0,0,0,0,0,0,0,0,0,0,0,0,0,0,0,0,0,0,0,0,0,0,0,0,0,0,0,0,0,0,0,0,0,0,0,0,0,0,0,0,0,0,0,0,0,0,0,0,0,0,0,0,0,0,0,-1.0436,-1.0437,0,-1.0468,-1.0469,-1.0469,-1.0467,-1.0466,-1.0466,-1.0465,-1.0499,-1.05,-1.0501,0,0,0,0,0,0,0,0,0,0,0,0,0,-1.0374,-1.0375,-1.0436,-1.0437,-1.0437,-1.0468,-1.0469,-1.0469,-1.0467,-1.0466,-1.0466,-1.0465,-1.0498,-1.05,-1.0502,0,0,0,0,0,0,0,0,0,0,0,0,0,-1.0403,-1.0375,-1.0436,-1.044,-1.044,-1.0468,-1.0469,-1.0469,-1.0467,-1.0466,-1.0466,-1.0465,-1.0498,-1.05,-1.0502,-1.0529,0,0,-1.0508,-1.0509,0,0,0,0,0,0,0,0,-1.0401,-1.0405,-1.0439,-1.0439,-1.044,-1.0463,-1.0459,-1.0489,-1.0467,-1.0457,-1.0465,-1.0465,-1.0488,-1.049,-1.0498,-1.053,-1.0532,-1.0508,-1.0509,-1.051,-1.0511,0,0,0,0,0,0,0,-1.0399,-1.0404,-1.0449,-1.0439,-1.044,-1.044,-1.0443,-1.0465,-1.0476,-1.0458,-1.0458,-1.0461,-1.0488,-1.0496,-1.0499,-1.0532,-1.0508,-1.051,-1.0511,-1.0512,-1.0589,-1.059,0,0,0,0,0,0,-1.0396,-1.0402,-1.0448,-1.045,-1.0419,-1.0442,-1.0445,-1.0456,-1.0476,-1.0478,-1.0462,-1.0461,-1.0493,-1.0496,-1.05,-1.0533,-1.051,-1.0512,-1.0513,-1.0588,-1.0589,-1.059,0,0,0,0,0,0,-1.0395,-1.04,-1.0447,-1.0426,-1.0432,-1.0443,-1.0456,-1.0457,-1.0466,-1.0479,-1.0481,-1.0468,-1.0493,-1.0497,-1.0522,-1.0534,-1.0513,-1.0515,-1.0587,-1.0589,-1.059,-1.06,0,0,0,0,0,0,-1.0393,-1.04,-1.041,-1.0426,-1.0433,-1.0468,-1.0457,-1.0458,-1.0469,-1.0468,-1.0485,-1.0488,-1.0492,-1.0519,-1.0524,-1.0537,-1.0516,-1.0586,-1.0588,-1.059,-1.0598,-1.0601,-1.0604,0,0,0,0,0,-1.0391,-1.0411,-1.0411,-1.0416,-1.0446,-1.0468,-1.0472,-1.0477,-1.047,-1.048,-1.0489,-1.0487,-1.0532,-1.0521,-1.0527,-1.0541,-1.0586,-1.0588,-1.0589,-1.0597,-1.0601,-1.0604,0,0,0,0,0,0,-1.0396,-1.0414,-1.0413,-1.0439,-1.0452,-1.0468,-1.0481,-1.0481,-1.0496,-1.0495,-1.0501,-1.0505,-1.053,-1.0538,-1.0525,-1.0568,-1.0558,-1.0561,-1.0562,-1.0565,-1.0568,-1.0565,-1.0518,0,0,0,0,0,-1.0401,-1.0417,-1.0432,-1.0453,-1.046,-1.047,-1.048,-1.0482,-1.0496,-1.0502,-1.0512,-1.0526,-1.0544,-1.0555,-1.0572,-1.06,-1.0604,-1.0612,-1.0614,-1.0617,-1.0619,-1.0635,-1.0639,-1.0597,-1.0597,-1.0597,0,0,-1.041,-1.0421,-1.0431,-1.0455,-1.0465,-1.0483,-1.0474,-1.0493,-1.0506,-1.0505,-1.0529,-1.0537,-1.0553,-1.058,-1.0592,-1.0587,-1.0632,-1.0619,-1.0621,-1.0622,-1.0638,-1.0642,-1.0645,-1.0598,-1.0598,-1.0598,0,0,-1.0435,-1.0445,-1.0464,-1.0475,-1.0491,-1.0498,-1.0502,-1.0518,-1.0524,-1.0548,-1.0548,-1.0564,-1.0593,-1.0605,-1.0615,-1.0645,-1.0644,-1.065,-1.0664,-1.068,-1.0683,-1.0686,-1.0697,-1.0701,-1.0653,-1.0653,-1.0653,0,-1.0444,-1.047,-1.0475,-1.0494,-1.0504,-1.0504,-1.0524,-1.0535,-1.0555,-1.0563,-1.0557,-1.0595,-1.0606,-1.0635,-1.0643,-1.0651,-1.0657,-1.0648,-1.0682,-1.0685,-1.0688,-1.0699,-1.0703,-1.0654,-1.0654,-1.0654,-1.0654,0,-1.048,-1.0499,-1.0512,-1.0533,-1.0545,-1.0564,-1.0573,-1.0585,-1.0586,-1.0593,-1.0619,-1.0631,-1.0651,-1.0658,-1.066,-1.0689,-1.0685,-1.0681,-1.0671,-1.0693,-1.0703,-1.0707,-1.0655,-1.0655,-1.0654,-1.0654,0,0,-1.0509,-1.0532,-1.0537,-1.0547,-1.0565,-1.0579,-1.0599,-1.0618,-1.0629,-1.0643,-1.066,-1.0686,-1.0682,-1.0693,-1.0697,-1.071,-1.0734,-1.0704,-1.0705,-1.071,-1.0767,-1.077,-1.0775,-1.0734,-1.0734,-1.0735,-1.0765,0,-1.0537,-1.0571,-1.0577,-1.0608,-1.0625,-1.0625,-1.0642,-1.0656,-1.0663,-1.0679,-1.0687,-1.0705,-1.0699,-1.0706,-1.0719,-1.0728,-1.0746,-1.0726,-1.075,-1.0751,-1.0746,-1.078,-1.0783,-1.0811,-1.0769,-1.077,-1.0771,0,-1.0573,-1.0589,-1.0621,-1.0637,-1.0645,-1.066,-1.0679,-1.0694,-1.0709,-1.0714,-1.0726,-1.0728,-1.0749,-1.0739,-1.0768,-1.0755,-1.0765,-1.0771,-1.0772,-1.0774,-1.0762,-1.0783,-1.082,-1.0824,-1.0777,-1.0776,-1.0776,0,-1.0591,-1.0621,-1.0644,-1.0652,-1.0671,-1.0682,-1.0691,-1.0706,-1.0717,-1.0733,-1.0741,-1.0759,-1.077,-1.0784,-1.0791,-1.0782,-1.082,-1.081,-1.0825,-1.0825,-1.0833,-1.0832,-1.0872,-1.0839,-1.0839,-1.0839,-1.0839,0,-1.0621,-1.0641,-1.0653,-1.0667,-1.069,-1.0696,-1.0718,-1.0727,-1.074,-1.0756,-1.0758,-1.0773,-1.0781,-1.0798,-1.0804,-1.0828,-1.0832,-1.0837,-1.0838,-1.0837,-1.0836,-1.0843,-1.0842,-1.084,-1.084,-1.084,-1.0839,0,-1.0646,-1.0654,-1.068,-1.0696,-1.0701,-1.0717,-1.0731,-1.0745,-1.0753,-1.0774,-1.0779,-1.0791,-1.0811,-1.0819,-1.0844,-1.0848,-1.0875,-1.0875,-1.087,-1.087,-1.0885,-1.0884,-1.0931,-1.0937,-1.09,-1.09,-1.0901,0,-1.0665,-1.068,-1.0698,-1.0709,-1.0718,-1.0736,-1.0747,-1.0754,-1.0766,-1.0785,-1.0798,-1.0818,-1.0834,-1.0866,-1.0877,-1.0896,-1.0896,-1.0912,-1.0899,-1.0898,-1.0897,-1.0896,-1.0898,-1.0914,-1.0914,-1.0915,-1.0915,0,-1.0697,-1.07,-1.0717,-1.0735,-1.0749,-1.0764,-1.0778,-1.0787,-1.0796,-1.081,-1.083,-1.0843,-1.0868,-1.0888,-1.0908,-1.0918,-1.0918,-1.0919,-1.0923,-1.0922,-1.0919,-1.0921,-1.0876,-1.0917,-1.0917,-1.0917,-1.0917,-1.0917,-1.0719,-1.0733,-1.0748,-1.0767,-1.0778,-1.0792,-1.0806,-1.0816,-1.0833,-1.0854,-1.0857,-1.0879,-1.0894,-1.0921,-1.0931,-1.0949,-1.0945,-1.0951,-1.0953,-1.0955,-1.0956,-1.0916,-1.0952,-1.0952,-1.0952,-1.0952,-1.0952,0,-1.0752,-1.0762,-1.0779,-1.0799,-1.0814,-1.0813,-1.0829,-1.0841,-1.0861,-1.0875,-1.0891,-1.0915,-1.0934,-1.0947,-1.0967,-1.0979,-1.0979,-1.0984,-1.0983,-1.0985,-1.0958,-1.0952,-1.0983,-1.0983,-1.0983,-1.0983,-1.0983,-1.0983,-1.0771,-1.0795,-1.08,-1.0829,-1.0839,-1.0861,-1.087,-1.0883,-1.0894,-1.0921,-1.0937,-1.0945,-1.0959,-1.098,-1.0998,-1.1001,-1.1009,-1.1013,-1.1016,-1.099,-1.0987,-1.0984,-1.0979,-1.1015,-1.1015,-1.1042,-1.1043,-1.1043]},{"header":{"parameterUnit":"m.s-1","parameterCategory":1,"la1":30.2991,"la2":30.254,"lo1":-89.0895,"lo2":-89.0444,"dy":0.0017,"dx":0.0017,"nx":28,"ny":28,"refTime":"2025-04-29T03:00:00:Z","depth":0,"parameterNumber":3,"parameterNumberName":"V-component_of_WINDS"},"data":[0,0,0,0,0,0,0,0,0,0,0,0,0,0,0,0,0,0,0,0,0,0,0,0,0,0,0,0,0,0,0,0,0,0,0,0,0,0,0,0,0,0,0,0,0,0,0,0,0,0,0,0,0,0,0,0,0,0,4.0995,4.0995,0,4.1001,4.1001,4.1001,4.0935,4.0933,4.0932,4.093,4.0935,4.0937,4.0939,0,0,0,0,0,0,0,0,0,0,0,0,0,4.0926,4.0928,4.0995,4.0995,4.0995,4.1001,4.1001,4.1001,4.0936,4.0933,4.0931,4.0929,4.0934,4.0937,4.0939,0,0,0,0,0,0,0,0,0,0,0,0,0,4.0947,4.0929,4.0995,4.0963,4.0961,4.1001,4.1001,4.1001,4.0936,4.0933,4.0931,4.0928,4.0934,4.0936,4.0939,4.101,0,0,4.0947,4.0949,0,0,0,0,0,0,0,0,4.0945,4.0949,4.0968,4.0966,4.0963,4.0964,4.0978,4.1004,4.0937,4.0945,4.093,4.0927,4.0947,4.0948,4.0955,4.101,4.101,4.0948,4.0949,4.095,4.0951,0,0,0,0,0,0,0,4.0944,4.0949,4.0997,4.0968,4.0965,4.0948,4.0948,4.0983,4.0961,4.0944,4.094,4.0941,4.0945,4.0953,4.0955,4.101,4.0948,4.095,4.0952,4.0953,4.1121,4.1123,0,0,0,0,0,0,4.0947,4.0948,4.0997,4.0997,4.0947,4.0952,4.0952,4.0967,4.0961,4.0957,4.0943,4.0938,4.095,4.0952,4.0955,4.1035,4.095,4.0953,4.0955,4.1118,4.1121,4.1124,0,0,0,0,0,0,4.0946,4.0952,4.0997,4.0971,4.0976,4.0956,4.0973,4.0968,4.0976,4.096,4.0956,4.0956,4.0948,4.0951,4.0996,4.1034,4.0954,4.0957,4.1115,4.1119,4.1123,4.1197,0,0,0,0,0,0,4.0944,4.0952,4.0979,4.0972,4.0977,4.1039,4.0976,4.097,4.0981,4.0974,4.097,4.0967,4.0946,4.0992,4.0999,4.1037,4.0959,4.1111,4.1116,4.1121,4.1191,4.1204,4.1214,0,0,0,0,0,4.0942,4.1001,4.0981,4.0987,4.1011,4.1041,4.1044,4.1018,4.0984,4.1011,4.1,4.0967,4.103,4.0998,4.1004,4.1044,4.1108,4.1115,4.1121,4.1186,4.1201,4.1214,0,0,0,0,0,0,4.1013,4.0999,4.0977,4.1035,4.104,4.103,4.1062,4.1035,4.1049,4.1042,4.101,4.1009,4.1059,4.1056,4.1021,4.111,4.1063,4.1071,4.111,4.1124,4.1136,4.1134,4.0961,0,0,0,0,0,4.1035,4.1061,4.1048,4.11,4.1103,4.1083,4.1095,4.1075,4.1078,4.108,4.1072,4.1077,4.1097,4.1111,4.1129,4.1191,4.1188,4.1222,4.1233,4.1243,4.1249,4.128,4.1294,4.1145,4.1145,4.1145,0,0,4.1081,4.1077,4.1095,4.1114,4.1115,4.1141,4.1085,4.1116,4.1135,4.1084,4.1125,4.1121,4.1123,4.1176,4.12,4.1175,4.129,4.1251,4.1258,4.126,4.1288,4.1302,4.1314,4.115,4.1149,4.1148,0,0,4.1178,4.1179,4.1221,4.1223,4.1225,4.1211,4.1222,4.1216,4.121,4.1251,4.1213,4.1236,4.1272,4.1274,4.1281,4.1378,4.1347,4.1385,4.1444,4.1474,4.1486,4.1496,4.1528,4.1541,4.1392,4.1392,4.1393,0,4.1235,4.1274,4.1247,4.128,4.1288,4.1244,4.1285,4.1289,4.1297,4.1304,4.1277,4.132,4.1319,4.1371,4.1395,4.1402,4.1412,4.1384,4.1486,4.1496,4.1505,4.1536,4.1549,4.1397,4.1396,4.1396,4.1395,0,4.1343,4.137,4.1405,4.1413,4.1425,4.1463,4.144,4.1456,4.1435,4.1424,4.1465,4.1462,4.1478,4.1489,4.1469,4.1538,4.1523,4.1492,4.1443,4.1524,4.1552,4.1564,4.1403,4.1401,4.14,4.1399,0,0,4.1484,4.1476,4.1489,4.1491,4.1489,4.151,4.1545,4.156,4.1573,4.1581,4.1608,4.164,4.161,4.1617,4.1597,4.1624,4.1699,4.159,4.1589,4.1608,4.1772,4.1794,4.1808,4.168,4.1682,4.1683,4.1771,0,4.1577,4.1635,4.1611,4.1672,4.1696,4.1654,4.1684,4.1686,4.1676,4.1695,4.1684,4.1706,4.1667,4.167,4.1696,4.1685,4.1731,4.1678,4.1703,4.1704,4.1701,4.1823,4.1846,4.1929,4.1782,4.1784,4.1786,0,4.1692,4.1703,4.1766,4.1759,4.1768,4.1796,4.1806,4.1825,4.1826,4.1817,4.1825,4.1799,4.1832,4.1785,4.1829,4.1793,4.1802,4.1799,4.1801,4.1801,4.1748,4.1824,4.1956,4.1967,4.1803,4.1802,4.18,0,4.1786,4.1817,4.1857,4.1861,4.1854,4.1874,4.1872,4.1871,4.1881,4.1891,4.1897,4.1911,4.1918,4.1929,4.1907,4.1875,4.1953,4.1905,4.1945,4.1946,4.1962,4.1961,4.2095,4.1972,4.1972,4.1972,4.1971,0,4.189,4.193,4.1899,4.1924,4.1966,4.1938,4.1981,4.1975,4.1974,4.1996,4.1962,4.1983,4.1954,4.1973,4.1956,4.1994,4.1998,4.199,4.1985,4.1992,4.1993,4.1996,4.1989,4.1975,4.1974,4.1974,4.1973,0,4.2001,4.1982,4.2023,4.2013,4.2012,4.2043,4.2034,4.2057,4.2045,4.2073,4.2078,4.2059,4.2079,4.2059,4.2078,4.2067,4.2117,4.2104,4.2116,4.2112,4.2152,4.2148,4.2291,4.2307,4.2176,4.2178,4.2179,0,4.2068,4.2097,4.209,4.2102,4.2102,4.2123,4.2132,4.2106,4.2117,4.212,4.2142,4.2159,4.2171,4.2205,4.2193,4.2207,4.2193,4.2242,4.2195,4.22,4.2191,4.2188,4.219,4.2251,4.2253,4.2254,4.2255,0,4.2188,4.2176,4.2192,4.2203,4.2216,4.2224,4.2229,4.2242,4.2214,4.2228,4.2248,4.2258,4.2277,4.2293,4.2304,4.2301,4.2273,4.227,4.228,4.2286,4.2291,4.2286,4.214,4.2267,4.2265,4.2265,4.2264,4.2264,4.2277,4.23,4.2298,4.2315,4.2316,4.2322,4.2342,4.2332,4.2348,4.236,4.2344,4.2368,4.2367,4.2378,4.2379,4.2397,4.2376,4.2391,4.2394,4.2397,4.2402,4.229,4.2399,4.2399,4.2399,4.2398,4.2398,0,4.2392,4.2389,4.2405,4.2413,4.2427,4.24,4.2404,4.2417,4.2438,4.244,4.2452,4.2474,4.249,4.2479,4.2493,4.2509,4.2497,4.2513,4.2511,4.251,4.2421,4.241,4.2523,4.2523,4.2523,4.2523,4.2523,4.2523,4.2454,4.2491,4.2479,4.2516,4.2512,4.2534,4.2539,4.2544,4.2544,4.257,4.2583,4.2576,4.2572,4.2585,4.2598,4.2594,4.26,4.2621,4.2613,4.2529,4.2517,4.2505,4.2494,4.2623,4.2623,4.2699,4.27,4.2701]}]]